TimeEDT,TemperatureF,Dew PointF,Humidity,Sea Level PressureIn,VisibilityMPH,Wind Direction,Wind SpeedMPH,Gust SpeedMPH,PrecipitationIn,Events,Conditions,WindDirDegrees,DateUTC
12:01 AM,57.2,55.4,94,29.84,4.0,South,4.6,-,N/A,,Overcast,190,2013-04-29 04:01:00
12:23 AM,55.4,55.4,100,29.84,4.0,SW,3.5,-,N/A,,Overcast,220,2013-04-29 04:23:00
12:45 AM,55.4,55.4,100,29.84,4.0,SSW,3.5,-,N/A,,Overcast,210,2013-04-29 04:45:00
12:52 AM,55.9,55.0,97,29.84,4.0,SSW,3.5,-,N/A,,Overcast,210,2013-04-29 04:52:00
1:08 AM,55.4,55.4,100,29.84,4.0,SW,5.8,-,0.00,Rain,Light Rain,220,2013-04-29 05:08:00
1:52 AM,55.9,55.0,97,29.85,6.0,SW,3.5,-,0.00,,Overcast,220,2013-04-29 05:52:00
2:33 AM,55.4,55.4,100,29.85,6.0,WSW,6.9,-,N/A,,Overcast,240,2013-04-29 06:33:00
2:52 AM,55.9,54.0,93,29.86,8.0,WSW,9.2,-,N/A,,Overcast,250,2013-04-29 06:52:00
3:10 AM,55.4,53.6,94,29.85,6.0,West,8.1,-,N/A,,Overcast,260,2013-04-29 07:10:00
3:52 AM,55.0,53.1,93,29.86,6.0,West,5.8,-,N/A,,Overcast,270,2013-04-29 07:52:00
4:52 AM,55.0,53.1,93,29.88,7.0,WNW,5.8,-,N/A,,Overcast,290,2013-04-29 08:52:00
5:22 AM,53.6,53.6,100,29.88,6.0,WNW,5.8,-,N/A,,Overcast,290,2013-04-29 09:22:00
5:52 AM,54.0,53.1,97,29.89,6.0,West,4.6,-,N/A,,Overcast,270,2013-04-29 09:52:00
6:03 AM,53.6,53.6,100,29.89,5.0,Calm,Calm,-,N/A,,Overcast,0,2013-04-29 10:03:00
6:52 AM,54.0,52.0,93,29.91,5.0,WSW,4.6,-,N/A,,Overcast,240,2013-04-29 10:52:00
7:23 AM,53.6,53.6,100,29.91,2.5,WSW,4.6,-,N/A,,Overcast,250,2013-04-29 11:23:00
7:52 AM,54.0,52.0,93,29.93,2.5,WSW,4.6,-,N/A,,Overcast,250,2013-04-29 11:52:00
8:49 AM,55.4,51.8,88,29.94,3.0,WSW,4.6,-,N/A,,Overcast,250,2013-04-29 12:49:00
8:52 AM,55.0,52.0,89,29.94,3.0,WSW,4.6,-,N/A,,Overcast,250,2013-04-29 12:52:00
9:34 AM,55.4,51.8,88,29.94,8.0,West,4.6,-,N/A,,Overcast,280,2013-04-29 13:34:00
9:52 AM,57.0,53.1,87,29.94,10.0,WNW,3.5,-,N/A,,Overcast,290,2013-04-29 13:52:00
10:29 AM,59.0,53.6,82,29.94,10.0,WNW,4.6,-,N/A,,Overcast,290,2013-04-29 14:29:00
10:36 AM,60.8,53.6,77,29.94,10.0,WSW,4.6,-,N/A,,Overcast,240,2013-04-29 14:36:00
10:52 AM,61.0,53.1,75,29.95,10.0,Calm,Calm,-,N/A,,Mostly Cloudy,0,2013-04-29 14:52:00
11:25 AM,60.8,51.8,72,29.95,10.0,West,5.8,-,N/A,,Overcast,270,2013-04-29 15:25:00
11:38 AM,60.8,51.8,72,29.95,10.0,West,8.1,-,N/A,,Overcast,260,2013-04-29 15:38:00
11:47 AM,60.8,50.0,68,29.95,10.0,West,8.1,-,N/A,,Overcast,260,2013-04-29 15:47:00
11:52 AM,60.1,51.1,72,29.95,10.0,West,6.9,-,N/A,,Overcast,270,2013-04-29 15:52:00
12:52 PM,64.0,51.1,63,29.94,10.0,Calm,Calm,-,N/A,,Mostly Cloudy,0,2013-04-29 16:52:00
1:52 PM,64.9,50.0,58,29.93,10.0,West,5.8,-,N/A,,Overcast,260,2013-04-29 17:52:00
2:52 PM,66.9,50.0,54,29.92,10.0,West,5.8,-,N/A,,Mostly Cloudy,270,2013-04-29 18:52:00
3:52 PM,70.0,48.0,46,29.91,10.0,Calm,Calm,-,N/A,,Mostly Cloudy,0,2013-04-29 19:52:00
4:52 PM,69.1,50.0,51,29.91,10.0,SW,8.1,-,N/A,,Scattered Clouds,230,2013-04-29 20:52:00
5:52 PM,68.0,48.9,50,29.91,10.0,WSW,9.2,-,N/A,,Mostly Cloudy,250,2013-04-29 21:52:00
6:52 PM,68.0,52.0,56,29.91,10.0,South,10.4,-,N/A,,Clear,190,2013-04-29 22:52:00
7:52 PM,64.9,53.1,65,29.92,10.0,SSW,8.1,-,N/A,,Clear,210,2013-04-29 23:52:00
8:52 PM,62.1,53.1,72,29.93,10.0,South,4.6,-,N/A,,Clear,190,2013-04-30 00:52:00
9:52 PM,60.1,53.1,78,29.93,10.0,South,4.6,-,N/A,,Clear,190,2013-04-30 01:52:00
10:52 PM,59.0,52.0,78,29.95,10.0,South,4.6,-,N/A,,Clear,190,2013-04-30 02:52:00
11:52 PM,57.0,52.0,83,29.95,9.0,South,4.6,-,N/A,,Clear,170,2013-04-30 03:52:00